TimeCST,TemperatureF,Dew PointF,Humidity,Sea Level PressureIn,VisibilityMPH,Wind Direction,Wind SpeedMPH,Gust SpeedMPH,PrecipitationIn,Events,Conditions,WindDirDegrees,DateUTC
12:56 AM,19.9,17.1,89,30.41,10.0,Calm,Calm,-,N/A,,Clear,0,2013-01-10 06:56:00
1:56 AM,18.0,16.0,92,30.42,10.0,East,3.5,-,N/A,,Clear,90,2013-01-10 07:56:00
2:56 AM,16.0,14.0,92,30.42,10.0,Calm,Calm,-,N/A,,Clear,0,2013-01-10 08:56:00
3:56 AM,19.9,17.1,89,30.40,10.0,Calm,Calm,-,N/A,,Clear,0,2013-01-10 09:56:00
4:56 AM,17.1,14.0,88,30.39,10.0,Calm,Calm,-,N/A,,Clear,0,2013-01-10 10:56:00
5:56 AM,21.9,17.1,82,30.37,10.0,Calm,Calm,-,N/A,,Clear,0,2013-01-10 11:56:00
6:56 AM,25.0,18.0,75,30.36,10.0,SSE,6.9,-,N/A,,Clear,160,2013-01-10 12:56:00
7:56 AM,24.1,18.0,77,30.37,10.0,Calm,Calm,-,N/A,,Clear,0,2013-01-10 13:56:00
8:56 AM,25.0,18.0,75,30.36,10.0,Calm,Calm,-,N/A,,Clear,0,2013-01-10 14:56:00
9:56 AM,30.9,21.9,69,30.34,10.0,Calm,Calm,-,N/A,,Clear,0,2013-01-10 15:56:00
10:56 AM,34.0,19.9,56,30.30,10.0,SE,5.8,-,N/A,,Clear,140,2013-01-10 16:56:00
11:56 AM,37.0,19.0,48,30.25,10.0,SSE,9.2,-,N/A,,Clear,160,2013-01-10 17:56:00
12:56 PM,37.9,18.0,45,30.19,10.0,ESE,8.1,-,N/A,,Clear,120,2013-01-10 18:56:00
1:56 PM,37.9,19.0,47,30.16,10.0,SE,10.4,-,N/A,,Clear,130,2013-01-10 19:56:00
2:56 PM,37.0,19.0,48,30.14,10.0,ESE,8.1,-,N/A,,Clear,120,2013-01-10 20:56:00
3:56 PM,39.0,19.0,45,30.11,10.0,ESE,9.2,-,N/A,,Overcast,120,2013-01-10 21:56:00
4:56 PM,37.9,19.0,47,30.07,10.0,ESE,9.2,-,N/A,,Overcast,110,2013-01-10 22:56:00
5:56 PM,37.0,21.9,54,30.03,10.0,East,5.8,-,0.00,,Overcast,100,2013-01-10 23:56:00
6:56 PM,35.1,26.1,70,29.99,9.0,ESE,9.2,-,0.03,Rain,Light Rain,110,2013-01-11 00:56:00
7:03 PM,35.6,26.6,70,29.95,7.0,ESE,10.4,-,0.01,Rain,Rain,110,2013-01-11 01:03:00
7:56 PM,33.1,30.0,89,29.95,5.0,SE,8.1,-,0.12,Rain,Rain,130,2013-01-11 01:56:00
8:42 PM,33.8,32.0,93,29.87,5.0,SE,9.2,-,0.06,Rain,Light Rain,130,2013-01-11 02:42:00
8:56 PM,34.0,32.0,92,29.89,6.0,ESE,8.1,-,0.07,Rain,Light Rain,120,2013-01-11 02:56:00
9:56 PM,35.1,32.0,89,29.87,10.0,SSE,10.4,-,0.01,,Overcast,150,2013-01-11 03:56:00
11:56 PM,34.0,33.1,96,29.82,4.0,SSE,9.2,-,N/A,,Overcast,150,2013-01-11 05:56:00